| time (UTC) | temp C | wind direction | speed KPH | gust KPH | rain 1hr cm | rain 24hr cm | rain mn cm | humidity % | barometer mb |
| 20260509002433 | 18 | 171 | 8.0 | 9.7 | 0.00 | 0.00 | 0.00 | 45 | 1007.9 |
| 20260509001930 | 18 | 170 | 9.7 | 11.3 | 0.00 | 0.00 | 0.00 | 45 | 1007.9 |
| 20260509001427 | 18 | 170 | 9.7 | 9.7 | 0.00 | 0.00 | 0.00 | 45 | 1008.0 |
| 20260509000924 | 18 | 167 | 9.7 | 11.3 | 0.00 | 0.00 | 0.00 | 45 | 1007.8 |
| 20260509000422 | 18 | 180 | 11.3 | 11.3 | 0.00 | 0.00 | 0.00 | 45 | 1008.0 |
| 20260508235917 | 18 | 174 | 9.7 | 11.3 | 0.00 | 0.00 | 0.00 | 44 | 1008.0 |
| 20260508235415 | 18 | 176 | 9.7 | 11.3 | 0.00 | 0.00 | 0.00 | 45 | 1008.0 |
| 20260508234911 | 18 | 178 | 9.7 | 9.7 | 0.00 | 0.00 | 0.00 | 44 | 1008.0 |
| 20260508234408 | 18 | 174 | 9.7 | 9.7 | 0.00 | 0.00 | 0.00 | 44 | 1008.1 |
| 20260508233906 | 19 | 174 | 9.7 | 11.3 | 0.00 | 0.00 | 0.00 | 44 | 1007.9 |
| 20260508233405 | 19 | 173 | 9.7 | 9.7 | 0.00 | 0.00 | 0.00 | 43 | 1007.9 |
| 20260508232856 | 19 | 171 | 8.0 | 11.3 | 0.00 | 0.00 | 0.00 | 43 | 1007.9 |
| 20260508232352 | 19 | 174 | 9.7 | 9.7 | 0.00 | 0.00 | 0.00 | 43 | 1008.1 |
| 20260508231851 | 19 | 178 | 8.0 | 11.3 | 0.00 | 0.00 | 0.00 | 44 | 1007.9 |
| 20260508231346 | 19 | 187 | 11.3 | 11.3 | 0.00 | 0.00 | 0.00 | 45 | 1007.9 |
| 20260508230843 | 19 | 180 | 9.7 | 11.3 | 0.00 | 0.00 | 0.00 | 42 | 1008.0 |
| 20260508230339 | 19 | 176 | 8.0 | 14.5 | 0.00 | 0.00 | 0.00 | 42 | 1008.2 |
| 20260508225837 | 19 | 177 | 8.0 | 11.3 | 0.00 | 0.00 | 0.00 | 43 | 1008.0 |
| 20260508225334 | 19 | 174 | 8.0 | 11.3 | 0.00 | 0.00 | 0.00 | 43 | 1007.8 |
| 20260508224832 | 19 | 178 | 9.7 | 11.3 | 0.00 | 0.00 | 0.00 | 43 | 1008.0 |
| 20260508224329 | 19 | 177 | 9.7 | 9.7 | 0.00 | 0.00 | 0.00 | 43 | 1007.8 |
| 20260508223826 | 20 | 178 | 8.0 | 11.3 | 0.00 | 0.00 | 0.00 | 42 | 1007.9 |
| 20260508223323 | 19 | 174 | 8.0 | 14.5 | 0.00 | 0.00 | 0.00 | 42 | 1007.7 |
| 20260508222821 | 20 | 166 | 8.0 | 11.3 | 0.00 | 0.00 | 0.00 | 43 | 1007.9 |
| 20260508222318 | 20 | 174 | 9.7 | 11.3 | 0.00 | 0.00 | 0.00 | 40 | 1007.7 |
| 20260508221815 | 20 | 176 | 8.0 | 14.5 | 0.00 | 0.00 | 0.00 | 39 | 1007.9 |
| 20260508221310 | 20 | 176 | 9.7 | 16.1 | 0.00 | 0.00 | 0.00 | 40 | 1007.6 |
| 20260508220807 | 20 | 163 | 9.7 | 16.1 | 0.00 | 0.00 | 0.00 | 40 | 1007.6 |
| 20260508220303 | 20 | 176 | 8.0 | 14.5 | 0.00 | 0.00 | 0.00 | 39 | 1007.7 |
| 20260508215800 | 20 | 177 | 12.9 | 14.5 | 0.00 | 0.00 | 0.00 | 39 | 1007.5 |
| 20260508215256 | 20 | 181 | 12.9 | 17.7 | 0.00 | 0.00 | 0.00 | 39 | 1007.4 |
| 20260508214754 | 20 | 190 | 12.9 | 17.7 | 0.00 | 0.00 | 0.00 | 39 | 1007.8 |
| 20260508214250 | 20 | 184 | 11.3 | 14.5 | 0.00 | 0.00 | 0.00 | 38 | 1007.9 |
| 20260508213747 | 21 | 177 | 8.0 | 14.5 | 0.00 | 0.00 | 0.00 | 38 | 1007.9 |
| 20260508213244 | 21 | 180 | 12.9 | 16.1 | 0.00 | 0.00 | 0.00 | 39 | 1007.8 |
| 20260508212735 | 21 | 204 | 14.5 | 19.3 | 0.00 | 0.00 | 0.00 | 37 | 1007.7 |
| 20260508212232 | 21 | 184 | 11.3 | 20.9 | 0.00 | 0.00 | 0.00 | 39 | 1008.1 |
| 20260508211727 | 20 | 197 | 11.3 | 17.7 | 0.00 | 0.00 | 0.00 | 39 | 1007.8 |
| 20260508211223 | 20 | 190 | 14.5 | 16.1 | 0.00 | 0.00 | 0.00 | 40 | 1008.2 |
| 20260508210721 | 20 | 180 | 11.3 | 19.3 | 0.00 | 0.00 | 0.00 | 39 | 1008.2 |
| 20260508210218 | 20 | 188 | 12.9 | 16.1 | 0.00 | 0.00 | 0.00 | 38 | 1008.1 |
| 20260508205715 | 21 | 182 | 9.7 | 16.1 | 0.00 | 0.00 | 0.00 | 39 | 1008.1 |
| 20260508205211 | 21 | 184 | 11.3 | 19.3 | 0.00 | 0.00 | 0.00 | 37 | 1008.3 |
| 20260508204707 | 21 | 205 | 16.1 | 19.3 | 0.00 | 0.00 | 0.00 | 37 | 1008.4 |
| 20260508204204 | 21 | 178 | 8.0 | 19.3 | 0.00 | 0.00 | 0.00 | 38 | 1008.3 |
| 20260508203700 | 21 | 157 | 4.8 | 14.5 | 0.00 | 0.00 | 0.00 | 37 | 1008.5 |
| 20260508203156 | 20 | 187 | 9.7 | 17.7 | 0.00 | 0.00 | 0.00 | 39 | 1008.7 |
| 20260508202652 | 20 | 185 | 16.1 | 17.7 | 0.00 | 0.00 | 0.00 | 38 | 1008.8 |
| 20260508202150 | 20 | 162 | 11.3 | 14.5 | 0.00 | 0.00 | 0.00 | 39 | 1008.7 |
| 20260508201646 | 21 | 193 | 12.9 | 12.9 | 0.00 | 0.00 | 0.00 | 37 | 1009.0 |
| 20260508201143 | 20 | 176 | 14.5 | 16.1 | 0.00 | 0.00 | 0.00 | 39 | 1009.1 |
| 20260508200640 | 20 | 191 | 8.0 | 14.5 | 0.00 | 0.00 | 0.00 | 40 | 1009.0 |
| 20260508200136 | 21 | 193 | 11.3 | 16.1 | 0.00 | 0.00 | 0.00 | 40 | 1009.3 |
| 20260508195632 | 21 | 181 | 11.3 | 14.5 | 0.00 | 0.00 | 0.00 | 37 | 1009.3 |
| 20260508195128 | 21 | 177 | 9.7 | 14.5 | 0.00 | 0.00 | 0.00 | 36 | 1009.2 |
| 20260508194625 | 21 | 190 | 12.9 | 16.1 | 0.00 | 0.00 | 0.00 | 36 | 1009.3 |
| 20260508194123 | 21 | 189 | 9.7 | 14.5 | 0.00 | 0.00 | 0.00 | 38 | 1009.5 |
| 20260508193620 | 21 | 188 | 8.0 | 9.7 | 0.00 | 0.00 | 0.00 | 38 | 1009.5 |
| 20260508193116 | 21 | 190 | 11.3 | 16.1 | 0.00 | 0.00 | 0.00 | 37 | 1009.5 |
| 20260508192613 | 21 | 184 | 14.5 | 17.7 | 0.00 | 0.00 | 0.00 | 36 | 1009.5 |
| 20260508192110 | 21 | 203 | 8.0 | 14.5 | 0.00 | 0.00 | 0.00 | 36 | 1009.6 |
| 20260508191607 | 21 | 205 | 8.0 | 22.5 | 0.00 | 0.00 | 0.00 | 37 | 1009.6 |
| 20260508191104 | 22 | 195 | 12.9 | 14.5 | 0.00 | 0.00 | 0.00 | 38 | 1009.5 |
| 20260508190601 | 21 | 191 | 11.3 | 12.9 | 0.00 | 0.00 | 0.00 | 38 | 1009.7 |
| 20260508190057 | 21 | 181 | 11.3 | 14.5 | 0.00 | 0.00 | 0.00 | 33 | 1009.7 |
| 20260508185554 | 21 | 183 | 8.0 | 17.7 | 0.00 | 0.00 | 0.00 | 35 | 1009.9 |
| 20260508185052 | 21 | 186 | 9.7 | 20.9 | 0.00 | 0.00 | 0.00 | 34 | 1009.9 |
| 20260508184549 | 21 | 197 | 12.9 | 16.1 | 0.00 | 0.00 | 0.00 | 37 | 1009.8 |
| 20260508184045 | 21 | 191 | 12.9 | 17.7 | 0.00 | 0.00 | 0.00 | 37 | 1010.0 |
| 20260508183541 | 21 | 185 | 11.3 | 12.9 | 0.00 | 0.00 | 0.00 | 37 | 1010.1 |
| 20260508183037 | 21 | 180 | 12.9 | 14.5 | 0.00 | 0.00 | 0.00 | 38 | 1010.2 |
| 20260508182534 | 20 | 195 | 8.0 | 17.7 | 0.00 | 0.00 | 0.00 | 39 | 1010.3 |
| 20260508182031 | 20 | 190 | 9.7 | 16.1 | 0.00 | 0.00 | 0.00 | 36 | 1010.1 |
| 20260508181526 | 21 | 180 | 14.5 | 22.5 | 0.00 | 0.00 | 0.00 | 38 | 1010.5 |
| 20260508181024 | 21 | 200 | 11.3 | 17.7 | 0.00 | 0.00 | 0.00 | 37 | 1010.5 |
| 20260508180520 | 21 | 192 | 9.7 | 14.5 | 0.00 | 0.00 | 0.00 | 35 | 1010.6 |
| 20260508180017 | 21 | 201 | 9.7 | 16.1 | 0.00 | 0.00 | 0.00 | 37 | 1010.5 |
| 20260508175513 | 21 | 201 | 11.3 | 14.5 | 0.00 | 0.00 | 0.00 | 42 | 1010.9 |
| 20260508175011 | 21 | 180 | 8.0 | 12.9 | 0.00 | 0.00 | 0.00 | 42 | 1010.8 |
| 20260508174508 | 21 | 188 | 9.7 | 14.5 | 0.00 | 0.00 | 0.00 | 40 | 1010.8 |
| 20260508174005 | 21 | 196 | 11.3 | 11.3 | 0.00 | 0.00 | 0.00 | 44 | 1011.1 |
| 20260508173502 | 20 | 202 | 11.3 | 16.1 | 0.00 | 0.00 | 0.00 | 38 | 1010.9 |
| 20260508172958 | 21 | 212 | 22.5 | 22.5 | 0.00 | 0.00 | 0.00 | 36 | 1011.0 |
| 20260508172455 | 20 | 156 | 11.3 | 17.7 | 0.00 | 0.00 | 0.00 | 44 | 1011.0 |
| 20260508171951 | 20 | 200 | 11.3 | 14.5 | 0.00 | 0.00 | 0.00 | 38 | 1011.2 |
| 20260508171448 | 20 | 190 | 8.0 | 17.7 | 0.00 | 0.00 | 0.00 | 39 | 1011.3 |
| 20260508170944 | 20 | 152 | 14.5 | 17.7 | 0.00 | 0.00 | 0.00 | 38 | 1011.7 |
| 20260508170442 | 20 | 190 | 9.7 | 14.5 | 0.00 | 0.00 | 0.00 | 40 | 1011.6 |
| 20260508165939 | 20 | 192 | 9.7 | 16.1 | 0.00 | 0.00 | 0.00 | 37 | 1011.7 |
| 20260508165437 | 20 | 165 | 8.0 | 14.5 | 0.00 | 0.00 | 0.00 | 44 | 1011.9 |
| 20260508164932 | 20 | 180 | 9.7 | 16.1 | 0.00 | 0.00 | 0.00 | 38 | 1011.9 |
| 20260508164430 | 19 | 197 | 12.9 | 17.7 | 0.00 | 0.00 | 0.00 | 44 | 1012.4 |
| 20260508163927 | 19 | 193 | 8.0 | 12.9 | 0.00 | 0.00 | 0.00 | 41 | 1012.1 |
| 20260508163425 | 19 | 193 | 14.5 | 14.5 | 0.00 | 0.00 | 0.00 | 41 | 1012.3 |
| 20260508162926 | 20 | 180 | 9.7 | 12.9 | 0.00 | 0.00 | 0.00 | 40 | 1012.2 |
| 20260508162424 | 19 | 200 | 19.3 | 19.3 | 0.00 | 0.00 | 0.00 | 41 | 1012.4 |
| 20260508161920 | 19 | 180 | 6.4 | 14.5 | 0.00 | 0.00 | 0.00 | 44 | 1012.4 |
| 20260508161412 | 19 | 193 | 14.5 | 16.1 | 0.00 | 0.00 | 0.00 | 45 | 1012.5 |
| 20260508160909 | 19 | 188 | 12.9 | 14.5 | 0.00 | 0.00 | 0.00 | 47 | 1012.5 |
| 20260508160408 | 18 | 188 | 6.4 | 12.9 | 0.00 | 0.00 | 0.00 | 49 | 1012.7 |
| 20260508155903 | 18 | 207 | 14.5 | 17.7 | 0.00 | 0.00 | 0.00 | 42 | 1012.6 |
| 20260508155401 | 18 | 194 | 8.0 | 14.5 | 0.00 | 0.00 | 0.00 | 45 | 1012.7 |
| 20260508154857 | 18 | 190 | 8.0 | 16.1 | 0.00 | 0.00 | 0.00 | 45 | 1012.7 |
| 20260508154355 | 18 | 179 | 8.0 | 11.3 | 0.00 | 0.00 | 0.00 | 47 | 1012.8 |
| 20260508153851 | 18 | 151 | 8.0 | 9.7 | 0.00 | 0.00 | 0.00 | 48 | 1013.2 |
| 20260508153349 | 18 | 188 | 8.0 | 16.1 | 0.00 | 0.00 | 0.00 | 47 | 1013.0 |
| 20260508152845 | 17 | 178 | 11.3 | 14.5 | 0.00 | 0.00 | 0.00 | 45 | 1013.0 |
| 20260508152342 | 17 | 196 | 11.3 | 16.1 | 0.00 | 0.00 | 0.00 | 46 | 1013.2 |
| 20260508151838 | 17 | 191 | 9.7 | 14.5 | 0.00 | 0.00 | 0.00 | 46 | 1013.2 |
| 20260508151335 | 17 | 186 | 11.3 | 12.9 | 0.00 | 0.00 | 0.00 | 46 | 1013.3 |
| 20260508150831 | 17 | 158 | 8.0 | 12.9 | 0.00 | 0.00 | 0.00 | 45 | 1013.4 |
| 20260508150328 | 17 | 183 | 11.3 | 11.3 | 0.00 | 0.00 | 0.00 | 48 | 1013.3 |
| 20260508145825 | 17 | 159 | 9.7 | 9.7 | 0.00 | 0.00 | 0.00 | 51 | 1013.2 |
| 20260508145321 | 16 | 197 | 9.7 | 12.9 | 0.00 | 0.00 | 0.00 | 47 | 1013.5 |
| 20260508144818 | 16 | 169 | 8.0 | 11.3 | 0.00 | 0.00 | 0.00 | 56 | 1013.5 |
| 20260508144316 | 16 | 146 | 8.0 | 9.7 | 0.00 | 0.00 | 0.00 | 53 | 1013.5 |
| 20260508143813 | 16 | 194 | 9.7 | 12.9 | 0.00 | 0.00 | 0.00 | 47 | 1013.7 |
| 20260508143310 | 16 | 182 | 8.0 | 17.7 | 0.00 | 0.00 | 0.00 | 49 | 1013.9 |
| 20260508142807 | 15 | 177 | 8.0 | 12.9 | 0.00 | 0.00 | 0.00 | 54 | 1013.5 |
| 20260508142306 | 15 | 158 | 8.0 | 9.7 | 0.00 | 0.00 | 0.00 | 55 | 1013.8 |
| 20260508141759 | 15 | 171 | 11.3 | 14.5 | 0.00 | 0.00 | 0.00 | 53 | 1013.8 |
| 20260508141257 | 15 | 168 | 9.7 | 11.3 | 0.00 | 0.00 | 0.00 | 56 | 1013.7 |
| 20260508140754 | 14 | 171 | 9.7 | 12.9 | 0.00 | 0.00 | 0.00 | 54 | 1013.7 |
| 20260508140251 | 13 | 164 | 8.0 | 14.5 | 0.00 | 0.00 | 0.00 | 56 | 1013.5 |
| 20260508135747 | 13 | 165 | 9.7 | 11.3 | 0.00 | 0.00 | 0.00 | 60 | 1013.7 |
| 20260508135243 | 13 | 157 | 9.7 | 12.9 | 0.00 | 0.00 | 0.00 | 58 | 1014.1 |
| 20260508134738 | 13 | 174 | 8.0 | 9.7 | 0.00 | 0.00 | 0.00 | 61 | 1013.7 |
| 20260508134236 | 12 | 169 | 8.0 | 9.7 | 0.00 | 0.00 | 0.00 | 60 | 1014.0 |
| 20260508133732 | 13 | 172 | 8.0 | 9.7 | 0.00 | 0.00 | 0.00 | 59 | 1013.9 |
| 20260508133230 | 12 | 163 | 8.0 | 8.0 | 0.00 | 0.00 | 0.00 | 60 | 1013.8 |
| 20260508132728 | 12 | 157 | 9.7 | 14.5 | 0.00 | 0.00 | 0.00 | 58 | 1013.8 |
| 20260508132225 | 12 | 160 | 8.0 | 11.3 | 0.00 | 0.00 | 0.00 | 61 | 1013.7 |
| 20260508131720 | 11 | 132 | 8.0 | 11.3 | 0.00 | 0.00 | 0.00 | 65 | 1013.8 |
| 20260508131217 | 11 | 157 | 8.0 | 12.9 | 0.00 | 0.00 | 0.00 | 65 | 1013.9 |
| 20260508130714 | 11 | 158 | 9.7 | 9.7 | 0.00 | 0.00 | 0.00 | 65 | 1013.9 |
| 20260508130212 | 10 | 156 | 9.7 | 11.3 | 0.00 | 0.00 | 0.00 | 64 | 1014.0 |
| 20260508125706 | 10 | 155 | 9.7 | 11.3 | 0.00 | 0.00 | 0.00 | 65 | 1014.0 |
| 20260508125204 | 10 | 145 | 9.7 | 11.3 | 0.00 | 0.00 | 0.00 | 65 | 1013.7 |
| 20260508124702 | 10 | 149 | 9.7 | 11.3 | 0.00 | 0.00 | 0.00 | 66 | 1013.7 |
| 20260508124159 | 10 | 168 | 11.3 | 12.9 | 0.00 | 0.00 | 0.00 | 67 | 1013.9 |
| 20260508123657 | 9 | 164 | 11.3 | 11.3 | 0.00 | 0.00 | 0.00 | 67 | 1013.8 |
| 20260508123155 | 9 | 147 | 9.7 | 9.7 | 0.00 | 0.00 | 0.00 | 68 | 1013.7 |
| 20260508122650 | 9 | 145 | 9.7 | 11.3 | 0.00 | 0.00 | 0.00 | 69 | 1013.9 |
| 20260508122147 | 8 | 150 | 9.7 | 11.3 | 0.00 | 0.00 | 0.00 | 69 | 1013.8 |
| 20260508121645 | 8 | 141 | 9.7 | 11.3 | 0.00 | 0.00 | 0.00 | 71 | 1013.7 |
| 20260508121143 | 8 | 144 | 9.7 | 11.3 | 0.00 | 0.00 | 0.00 | 72 | 1013.5 |
| 20260508120640 | 7 | 142 | 11.3 | 11.3 | 0.00 | 0.00 | 0.00 | 74 | 1013.3 |
| 20260508120139 | 7 | 147 | 9.7 | 12.9 | 0.00 | 0.00 | 0.00 | 77 | 1013.4 |
| 20260508115636 | 6 | 143 | 9.7 | 11.3 | 0.00 | 0.00 | 0.00 | 79 | 1013.7 |
| 20260508115132 | 6 | 144 | 9.7 | 12.9 | 0.00 | 0.00 | 0.00 | 79 | 1013.4 |
| 20260508114629 | 6 | 142 | 11.3 | 11.3 | 0.00 | 0.00 | 0.00 | 79 | 1013.3 |
| 20260508114125 | 6 | 148 | 11.3 | 11.3 | 0.00 | 0.00 | 0.00 | 79 | 1013.4 |
| 20260508113623 | 5 | 146 | 11.3 | 12.9 | 0.00 | 0.00 | 0.00 | 80 | 1013.4 |
| 20260508113121 | 5 | 149 | 11.3 | 11.3 | 0.00 | 0.00 | 0.00 | 81 | 1013.3 |
| 20260508112617 | 5 | 143 | 9.7 | 11.3 | 0.00 | 0.00 | 0.00 | 82 | 1013.4 |
| 20260508112114 | 5 | 155 | 9.7 | 11.3 | 0.00 | 0.00 | 0.00 | 82 | 1013.2 |
| 20260508111610 | 5 | 146 | 9.7 | 11.3 | 0.00 | 0.00 | 0.00 | 82 | 1013.1 |
| 20260508111108 | 5 | 149 | 9.7 | 11.3 | 0.00 | 0.00 | 0.00 | 82 | 1013.3 |
| 20260508110606 | 5 | 147 | 9.7 | 11.3 | 0.00 | 0.00 | 0.00 | 82 | 1013.1 |
| 20260508110101 | 5 | 149 | 9.7 | 11.3 | 0.00 | 0.00 | 0.00 | 81 | 1013.1 |
| 20260508105556 | 5 | 149 | 9.7 | 11.3 | 0.00 | 0.00 | 0.00 | 81 | 1013.1 |
| 20260508105054 | 5 | 149 | 9.7 | 11.3 | 0.00 | 0.00 | 0.00 | 81 | 1013.0 |
| 20260508104552 | 5 | 139 | 9.7 | 11.3 | 0.00 | 0.00 | 0.00 | 81 | 1013.0 |
| 20260508104047 | 5 | 133 | 11.3 | 11.3 | 0.00 | 0.00 | 0.00 | 80 | 1013.0 |
| 20260508103545 | 5 | 143 | 9.7 | 11.3 | 0.00 | 0.00 | 0.00 | 81 | 1013.2 |
| 20260508103042 | 5 | 141 | 9.7 | 11.3 | 0.00 | 0.00 | 0.00 | 81 | 1013.1 |
| 20260508102540 | 5 | 137 | 9.7 | 11.3 | 0.00 | 0.00 | 0.00 | 81 | 1013.0 |
| 20260508102037 | 5 | 142 | 9.7 | 12.9 | 0.00 | 0.00 | 0.00 | 80 | 1013.0 |
| 20260508101535 | 5 | 141 | 9.7 | 11.3 | 0.00 | 0.00 | 0.00 | 80 | 1013.2 |
| 20260508101032 | 5 | 136 | 9.7 | 11.3 | 0.00 | 0.00 | 0.00 | 80 | 1013.0 |
| 20260508100530 | 5 | 152 | 9.7 | 9.7 | 0.00 | 0.00 | 0.00 | 81 | 1013.0 |
| 20260508100026 | 5 | 146 | 9.7 | 9.7 | 0.00 | 0.00 | 0.00 | 81 | 1012.8 |
| 20260508095523 | 5 | 144 | 9.7 | 11.3 | 0.00 | 0.00 | 0.00 | 81 | 1013.1 |
| 20260508095020 | 5 | 139 | 9.7 | 11.3 | 0.00 | 0.00 | 0.00 | 80 | 1012.9 |
| 20260508094517 | 5 | 137 | 9.7 | 11.3 | 0.00 | 0.00 | 0.00 | 80 | 1012.9 |
| 20260508094014 | 5 | 144 | 9.7 | 11.3 | 0.00 | 0.00 | 0.00 | 81 | 1013.0 |
| 20260508093511 | 5 | 137 | 11.3 | 11.3 | 0.00 | 0.00 | 0.00 | 81 | 1012.9 |
| 20260508093009 | 5 | 138 | 11.3 | 12.9 | 0.00 | 0.00 | 0.00 | 79 | 1012.9 |
| 20260508092506 | 5 | 138 | 9.7 | 12.9 | 0.00 | 0.00 | 0.00 | 79 | 1012.8 |
| 20260508092005 | 5 | 139 | 12.9 | 12.9 | 0.00 | 0.00 | 0.00 | 79 | 1012.8 |
| 20260508091501 | 5 | 131 | 11.3 | 11.3 | 0.00 | 0.00 | 0.00 | 80 | 1012.8 |
| 20260508090958 | 5 | 129 | 9.7 | 11.3 | 0.00 | 0.00 | 0.00 | 79 | 1013.0 |
| 20260508090457 | 5 | 133 | 11.3 | 11.3 | 0.00 | 0.00 | 0.00 | 80 | 1012.8 |
| 20260508085953 | 5 | 133 | 11.3 | 11.3 | 0.00 | 0.00 | 0.00 | 80 | 1012.7 |
| 20260508085449 | 5 | 135 | 11.3 | 11.3 | 0.00 | 0.00 | 0.00 | 80 | 1012.9 |
| 20260508084947 | 5 | 130 | 9.7 | 11.3 | 0.00 | 0.00 | 0.00 | 80 | 1013.0 |
| 20260508084443 | 5 | 130 | 9.7 | 11.3 | 0.00 | 0.00 | 0.00 | 79 | 1012.8 |
| 20260508083941 | 5 | 134 | 11.3 | 11.3 | 0.00 | 0.00 | 0.00 | 81 | 1012.9 |
| 20260508083438 | 5 | 129 | 9.7 | 11.3 | 0.00 | 0.00 | 0.00 | 81 | 1012.7 |
| 20260508082933 | 5 | 125 | 11.3 | 11.3 | 0.00 | 0.00 | 0.00 | 80 | 1012.8 |
| 20260508082430 | 5 | 120 | 9.7 | 11.3 | 0.00 | 0.00 | 0.00 | 79 | 1012.8 |
| 20260508081928 | 6 | 132 | 9.7 | 12.9 | 0.00 | 0.00 | 0.00 | 78 | 1012.7 |
| 20260508081424 | 6 | 132 | 11.3 | 11.3 | 0.00 | 0.00 | 0.00 | 77 | 1012.8 |
| 20260508080920 | 6 | 137 | 9.7 | 11.3 | 0.00 | 0.00 | 0.00 | 77 | 1012.6 |
| 20260508080413 | 6 | 137 | 11.3 | 12.9 | 0.00 | 0.00 | 0.00 | 77 | 1012.8 |
| 20260508075909 | 6 | 138 | 11.3 | 12.9 | 0.00 | 0.00 | 0.00 | 76 | 1012.8 |
| 20260508075407 | 6 | 128 | 9.7 | 11.3 | 0.00 | 0.00 | 0.00 | 77 | 1012.8 |
| 20260508074905 | 6 | 129 | 8.0 | 11.3 | 0.00 | 0.00 | 0.00 | 75 | 1012.7 |
| 20260508074401 | 6 | 136 | 9.7 | 9.7 | 0.00 | 0.00 | 0.00 | 75 | 1012.4 |
| 20260508073858 | 6 | 139 | 9.7 | 11.3 | 0.00 | 0.00 | 0.00 | 76 | 1012.7 |
| 20260508073356 | 6 | 138 | 11.3 | 11.3 | 0.00 | 0.00 | 0.00 | 76 | 1012.7 |
| 20260508072852 | 6 | 139 | 11.3 | 12.9 | 0.00 | 0.00 | 0.00 | 75 | 1012.7 |
| 20260508072349 | 6 | 140 | 9.7 | 12.9 | 0.00 | 0.00 | 0.00 | 75 | 1012.6 |
| 20260508071846 | 6 | 137 | 9.7 | 12.9 | 0.00 | 0.00 | 0.00 | 75 | 1012.8 |
| 20260508071345 | 6 | 143 | 9.7 | 11.3 | 0.00 | 0.00 | 0.00 | 76 | 1012.9 |
| 20260508070842 | 6 | 137 | 12.9 | 12.9 | 0.00 | 0.00 | 0.00 | 75 | 1012.8 |
| 20260508070340 | 6 | 142 | 9.7 | 12.9 | 0.00 | 0.00 | 0.00 | 75 | 1013.0 |
| 20260508065837 | 6 | 139 | 9.7 | 11.3 | 0.00 | 0.00 | 0.00 | 75 | 1013.2 |
| 20260508065335 | 6 | 135 | 8.0 | 11.3 | 0.00 | 0.00 | 0.00 | 75 | 1013.1 |
| 20260508064833 | 6 | 130 | 9.7 | 11.3 | 0.00 | 0.00 | 0.00 | 76 | 1013.2 |
| 20260508064330 | 6 | 121 | 8.0 | 9.7 | 0.00 | 0.00 | 0.00 | 76 | 1013.2 |
| 20260508063828 | 6 | 119 | 9.7 | 11.3 | 0.00 | 0.00 | 0.00 | 76 | 1013.3 |
| 20260508063326 | 7 | 129 | 9.7 | 11.3 | 0.00 | 0.00 | 0.00 | 74 | 1013.4 |
| 20260508062822 | 7 | 138 | 11.3 | 11.3 | 0.00 | 0.00 | 0.00 | 74 | 1013.3 |
| 20260508062320 | 6 | 138 | 9.7 | 11.3 | 0.00 | 0.00 | 0.00 | 75 | 1013.3 |
| 20260508061816 | 6 | 128 | 9.7 | 9.7 | 0.00 | 0.00 | 0.00 | 76 | 1013.4 |
| 20260508061314 | 6 | 123 | 8.0 | 9.7 | 0.00 | 0.00 | 0.00 | 76 | 1013.5 |
| 20260508060810 | 7 | 122 | 8.0 | 8.0 | 0.00 | 0.00 | 0.00 | 75 | 1013.7 |
| 20260508060308 | 7 | 131 | 8.0 | 11.3 | 0.00 | 0.00 | 0.00 | 73 | 1013.7 |
| 20260508055803 | 7 | 138 | 11.3 | 12.9 | 0.00 | 0.00 | 0.00 | 73 | 1013.9 |
| 20260508055301 | 7 | 145 | 9.7 | 11.3 | 0.00 | 0.00 | 0.00 | 73 | 1013.8 |
| 20260508054757 | 7 | 137 | 11.3 | 11.3 | 0.00 | 0.00 | 0.00 | 72 | 1013.5 |
| 20260508054255 | 7 | 142 | 9.7 | 11.3 | 0.00 | 0.00 | 0.00 | 72 | 1013.8 |
| 20260508053751 | 7 | 134 | 9.7 | 11.3 | 0.00 | 0.00 | 0.00 | 71 | 1013.7 |
| 20260508053249 | 7 | 141 | 11.3 | 11.3 | 0.00 | 0.00 | 0.00 | 71 | 1013.4 |
| 20260508052746 | 7 | 145 | 11.3 | 11.3 | 0.00 | 0.00 | 0.00 | 71 | 1013.3 |
| 20260508052243 | 7 | 149 | 9.7 | 9.7 | 0.00 | 0.00 | 0.00 | 73 | 1013.8 |
| 20260508051739 | 7 | 146 | 9.7 | 11.3 | 0.00 | 0.00 | 0.00 | 73 | 1013.8 |
| 20260508051235 | 7 | 136 | 8.0 | 11.3 | 0.00 | 0.00 | 0.00 | 72 | 1013.7 |
| 20260508050732 | 7 | 133 | 9.7 | 11.3 | 0.00 | 0.00 | 0.00 | 72 | 1013.5 |
| 20260508050230 | 7 | 143 | 8.0 | 9.7 | 0.00 | 0.00 | 0.00 | 72 | 1013.3 |
| 20260508045724 | 7 | 138 | 9.7 | 11.3 | 0.00 | 0.00 | 0.00 | 72 | 1013.5 |
| 20260508045222 | 7 | 138 | 11.3 | 11.3 | 0.00 | 0.00 | 0.00 | 71 | 1013.4 |
| 20260508044720 | 7 | 148 | 8.0 | 9.7 | 0.00 | 0.00 | 0.00 | 70 | 1013.4 |
| 20260508044216 | 7 | 143 | 9.7 | 11.3 | 0.00 | 0.00 | 0.00 | 70 | 1013.5 |
| 20260508043712 | 7 | 141 | 9.7 | 11.3 | 0.00 | 0.00 | 0.00 | 70 | 1013.7 |
| 20260508043210 | 7 | 146 | 9.7 | 11.3 | 0.00 | 0.00 | 0.00 | 70 | 1013.3 |
| 20260508042706 | 7 | 143 | 11.3 | 11.3 | 0.00 | 0.00 | 0.00 | 70 | 1013.4 |
| 20260508042204 | 7 | 146 | 9.7 | 11.3 | 0.00 | 0.00 | 0.00 | 69 | 1013.3 |
| 20260508041700 | 7 | 152 | 9.7 | 11.3 | 0.00 | 0.00 | 0.00 | 70 | 1013.4 |
| 20260508041157 | 8 | 149 | 9.7 | 11.3 | 0.00 | 0.00 | 0.00 | 69 | 1013.5 |
| 20260508040653 | 8 | 140 | 11.3 | 11.3 | 0.00 | 0.00 | 0.00 | 68 | 1013.3 |
| 20260508040151 | 8 | 142 | 9.7 | 11.3 | 0.00 | 0.00 | 0.00 | 68 | 1013.7 |
| 20260508035648 | 8 | 141 | 9.7 | 11.3 | 0.00 | 0.00 | 0.00 | 67 | 1013.3 |
| 20260508035146 | 8 | 142 | 9.7 | 11.3 | 0.00 | 0.00 | 0.00 | 66 | 1013.4 |
| 20260508034642 | 8 | 133 | 9.7 | 11.3 | 0.00 | 0.00 | 0.00 | 65 | 1013.3 |
| 20260508034139 | 8 | 132 | 11.3 | 12.9 | 0.00 | 0.00 | 0.00 | 67 | 1013.3 |
| 20260508033636 | 8 | 140 | 9.7 | 11.3 | 0.00 | 0.00 | 0.00 | 67 | 1013.7 |
| 20260508033135 | 8 | 141 | 9.7 | 11.3 | 0.00 | 0.00 | 0.00 | 67 | 1013.5 |
| 20260508032631 | 8 | 144 | 9.7 | 9.7 | 0.00 | 0.00 | 0.00 | 68 | 1013.3 |
| 20260508032128 | 8 | 140 | 9.7 | 11.3 | 0.00 | 0.00 | 0.00 | 69 | 1013.4 |
| 20260508031625 | 8 | 137 | 9.7 | 11.3 | 0.00 | 0.00 | 0.00 | 69 | 1013.4 |
| 20260508031121 | 8 | 139 | 9.7 | 11.3 | 0.00 | 0.00 | 0.00 | 69 | 1013.3 |
| 20260508030618 | 8 | 138 | 11.3 | 11.3 | 0.00 | 0.00 | 0.00 | 65 | 1013.4 |
| 20260508030116 | 9 | 139 | 9.7 | 11.3 | 0.00 | 0.00 | 0.00 | 63 | 1013.2 |
| 20260508025612 | 9 | 134 | 9.7 | 11.3 | 0.00 | 0.00 | 0.00 | 61 | 1013.5 |
| 20260508025109 | 9 | 137 | 9.7 | 9.7 | 0.00 | 0.00 | 0.00 | 59 | 1013.3 |
| 20260508024605 | 9 | 137 | 9.7 | 11.3 | 0.00 | 0.00 | 0.00 | 58 | 1013.3 |
| 20260508024102 | 9 | 133 | 9.7 | 11.3 | 0.00 | 0.00 | 0.00 | 58 | 1013.4 |
| 20260508023558 | 9 | 139 | 11.3 | 11.3 | 0.00 | 0.00 | 0.00 | 58 | 1013.3 |
| 20260508023056 | 9 | 140 | 11.3 | 11.3 | 0.00 | 0.00 | 0.00 | 58 | 1013.1 |
| 20260508022551 | 9 | 131 | 9.7 | 11.3 | 0.00 | 0.00 | 0.00 | 60 | 1013.1 |
| 20260508022049 | 10 | 133 | 9.7 | 9.7 | 0.00 | 0.00 | 0.00 | 59 | 1013.0 |
| 20260508021544 | 10 | 136 | 11.3 | 11.3 | 0.00 | 0.00 | 0.00 | 61 | 1013.2 |
| 20260508021040 | 10 | 130 | 8.0 | 9.7 | 0.00 | 0.00 | 0.00 | 56 | 1013.3 |
| 20260508020538 | 10 | 127 | 8.0 | 9.7 | 0.00 | 0.00 | 0.00 | 56 | 1013.1 |
| 20260508020036 | 10 | 130 | 9.7 | 11.3 | 0.00 | 0.00 | 0.00 | 54 | 1013.2 |
| 20260508015533 | 10 | 130 | 8.0 | 9.7 | 0.00 | 0.00 | 0.00 | 54 | 1013.2 |
| 20260508015030 | 10 | 130 | 8.0 | 9.7 | 0.00 | 0.00 | 0.00 | 53 | 1013.1 |
| 20260508014526 | 10 | 130 | 8.0 | 8.0 | 0.00 | 0.00 | 0.00 | 52 | 1013.2 |
| 20260508014022 | 10 | 128 | 8.0 | 9.7 | 0.00 | 0.00 | 0.00 | 51 | 1012.9 |
| 20260508013518 | 11 | 131 | 8.0 | 8.0 | 0.00 | 0.00 | 0.00 | 49 | 1013.1 |
| 20260508013016 | 11 | 135 | 8.0 | 8.0 | 0.00 | 0.00 | 0.00 | 48 | 1013.2 |
| 20260508012513 | 11 | 134 | 8.0 | 9.7 | 0.00 | 0.00 | 0.00 | 47 | 1012.9 |
| 20260508012010 | 11 | 127 | 8.0 | 8.0 | 0.00 | 0.00 | 0.00 | 46 | 1012.9 |
| 20260508011509 | 11 | 112 | 6.4 | 8.0 | 0.00 | 0.00 | 0.00 | 46 | 1012.9 |
| 20260508011005 | 11 | 123 | 8.0 | 9.7 | 0.00 | 0.00 | 0.00 | 47 | 1013.0 |
| 20260508010457 | 11 | 129 | 8.0 | 8.0 | 0.00 | 0.00 | 0.00 | 47 | 1012.9 |
| 20260508005954 | 11 | 124 | 8.0 | 8.0 | 0.00 | 0.00 | 0.00 | 48 | 1012.8 |
| 20260508005450 | 11 | 129 | 8.0 | 8.0 | 0.00 | 0.00 | 0.00 | 47 | 1012.9 |
| 20260508004947 | 11 | 128 | 8.0 | 9.7 | 0.00 | 0.00 | 0.00 | 47 | 1012.7 |
| 20260508004443 | 11 | 132 | 8.0 | 8.0 | 0.00 | 0.00 | 0.00 | 47 | 1013.0 |
| 20260508003940 | 11 | 125 | 8.0 | 9.7 | 0.00 | 0.00 | 0.00 | 50 | 1012.8 |
| 20260508003437 | 11 | 134 | 8.0 | 8.0 | 0.00 | 0.00 | 0.00 | 47 | 1012.9 |
| 20260508002934 | 11 | 127 | 8.0 | 9.7 | 0.00 | 0.00 | 0.00 | 49 | 1012.6 |